Terminal Aerodrome Forecast
Issued by NWS Central Illinois

Home | Current Version | Previous Version | Text Only | Print | Product List | Glossary On
Versions: 1 2 3 4 5 6 7 8 9 10 11 12 13 14 15 16
439
FTUS43 KILX 091130
TAFPIA
TAF
KPIA 091130Z 0912/1012 29008KT P6SM OVC030
     FM092000 30007KT P6SM BKN070
     FM100100 VRB03KT P6SM BKN100=

USA.gov is the U.S. government's official web portal to all federal, state and local government web resources and services.